Tracking 17140 objects as of 1-July-2015
HD Live streaming from Space Station

COSMOS 2251 DEB

Track COSMOS 2251 DEB now!
10-day predictions
COSMOS 2251 DEB is classified as:


NORAD ID: 37120
Int'l Code: 1993-036BGS
Perigee: 744.1 km
Apogee: 819.3 km
Inclination: 74.0 °
Period: 100.3 minutes
Semi major axis: 7152 km
RCS: 0.0125 m2 (small)
Launch date: June 16, 1993
Source: Commonwealth of Independent States (former USSR) (CIS)

Note: This is SATELLITE DEBRIS
Your satellite tracking list
Your tracking list is empty





NASA's NSSDC Master Catalog

Two Line Element Set (TLE):
1 37120U 93036BGS 15182.51464377  .00001907  00000-0  66629-3 0  9997
2 37120 074.0188 122.0645 0052544 013.7097 346.5468 14.35150909285985

Source of the keplerian elements: AFSPC

N2YO: 274